H-2 R/B

基本信息
目录编号:
24279
目录名称:
H-2 R/B
国际标识:
1996-046C
轨道中心:
EARTH
物体状态:
在轨
发射日期:
1996-08-17 UTC
国别:
日本 (JP)
轨道信息
数据来源: 国际轨道数据
星历时间: 2026-07-13T18:34:45+0800
半长轴: 7459.659km
偏心率: 0.0300122
轨道倾角: 98.759°
近地点辐角: 117.120°
升交点赤经: 129.252°
平近点角: 351.545°
近地点: 857.641km
远地点: 1305.403km
周期: 106.866分钟
每日圈数: 13.474862
详细信息
发射场:
TNSTA
轨道高度:
LEO
数据来源:
AOE Integration Group
参考系:
TEME
时间系统:
UTC
历元类型:
SGP4
2D轨道图
3D轨道图
轨道高度分析图
轨道倾角分析图
轨道综合分析图
查看轨道综合分析图